Location: Lawrence Hall of Science
(37.8785°N, 122.2415°W)
Time: 21:17:35
(UTC-07:00)

Cosmos 2151 - Visible Passes

Search period start: 01 August 2015 00:00
Search period end: 11 August 2015 00:00
Orbit: 583 x 605 km, 82.5° (Epoch: 01 August)

Date Brightness Start Highest point End Pass type
(mag) Time Alt. Az. Time Alt. Az. Time Alt. Az.
01 Aug 4.5 03:20:31 10° NNE 03:24:18 32° ENE 03:25:29 27° ESE visible
01 Aug 4.5 04:58:34 10° NW 05:01:27 17° W 05:02:04 17° W visible
02 Aug 3.6 03:29:42 10° N 03:33:51 51° E 03:34:16 49° ESE visible
02 Aug 5.0 05:09:31 10° WNW 05:10:48 11° W 05:10:51 11° W visible
03 Aug 3.0 03:39:04 10° N 03:43:06 78° NNE 03:43:06 78° NNE visible
04 Aug 3.4 03:48:33 10° NNW 03:51:59 50° NW 03:51:59 50° NW visible
05 Aug 5.6 02:22:05 10° NE 02:24:18 15° ENE 02:24:18 15° ENE visible
05 Aug 4.2 03:58:13 10° NNW 04:00:54 30° NW 04:00:54 30° NW visible
06 Aug 5.2 02:30:48 10° NNE 02:33:16 22° NE 02:33:16 22° NE visible
06 Aug 4.8 04:08:06 10° NW 04:09:52 19° WNW 04:09:52 19° WNW visible
07 Aug 4.9 02:39:51 10° N 02:42:15 27° NE 02:42:15 27° NE visible
07 Aug 5.3 04:18:20 10° NW 04:18:51 12° WNW 04:18:51 12° WNW visible
08 Aug 4.8 02:49:05 10° N 02:51:16 29° NNE 02:51:16 29° NNE visible
09 Aug 4.9 02:58:29 10° N 03:00:19 25° N 03:00:19 25° N visible
10 Aug 5.2 03:08:02 10° NNW 03:09:23 19° NNW 03:09:23 19° NNW visible
